Year,Month,Day,Hour,Minute,Value (Times are PST for temperature in C)
2006,05,03,00,00,6.80
2006,05,03,00,01,6.80
2006,05,03,00,02,6.80
2006,05,03,00,03,6.80
2006,05,03,00,04,6.80
2006,05,03,00,05,6.80
2006,05,03,00,06,6.80
2006,05,03,00,07,6.80
2006,05,03,00,08,6.80
2006,05,03,00,09,6.80
2006,05,03,00,10,6.80
2006,05,03,00,11,6.80
2006,05,03,00,12,6.80
2006,05,03,00,13,6.80
2006,05,03,00,14,6.80
2006,05,03,00,15,6.80
2006,05,03,00,16,6.70
2006,05,03,00,17,6.70
2006,05,03,00,18,6.70
2006,05,03,00,19,6.60
2006,05,03,00,20,6.60
2006,05,03,00,21,6.60
2006,05,03,00,22,6.60
2006,05,03,00,23,6.60
2006,05,03,00,24,6.50
2006,05,03,00,25,6.40
2006,05,03,00,26,6.40
2006,05,03,00,27,6.40
2006,05,03,00,28,6.40
2006,05,03,00,29,6.40
2006,05,03,00,30,6.40
2006,05,03,00,31,6.30
2006,05,03,00,32,6.30
2006,05,03,00,33,6.30
2006,05,03,00,34,6.30
2006,05,03,00,35,6.30
2006,05,03,00,36,6.20
2006,05,03,00,37,6.20
2006,05,03,00,38,6.20
2006,05,03,00,39,6.20
2006,05,03,00,40,6.20
2006,05,03,00,41,6.20
2006,05,03,00,42,6.20
2006,05,03,00,43,6.20
2006,05,03,00,44,6.20
2006,05,03,00,45,6.20
2006,05,03,00,46,6.10
2006,05,03,00,47,6.10
2006,05,03,00,48,6.10
2006,05,03,00,49,6.10
2006,05,03,00,50,6.10
2006,05,03,00,51,6.10
2006,05,03,00,52,6.10
2006,05,03,00,53,6.10
2006,05,03,00,54,6.10
2006,05,03,00,55,6.10
2006,05,03,00,56,6.10
2006,05,03,00,57,6.10
2006,05,03,00,58,6.10
2006,05,03,00,59,6.10
2006,05,03,01,00,6.10
2006,05,03,01,01,6.10
2006,05,03,01,02,6.10
2006,05,03,01,03,6.00
2006,05,03,01,04,6.00
2006,05,03,01,05,6.00
2006,05,03,01,06,6.00
2006,05,03,01,07,6.00
2006,05,03,01,08,6.00
2006,05,03,01,09,5.90
2006,05,03,01,10,5.90
2006,05,03,01,11,5.90
2006,05,03,01,12,5.90
2006,05,03,01,13,5.90
2006,05,03,01,14,5.90
2006,05,03,01,15,5.90
2006,05,03,01,16,5.90
2006,05,03,01,17,5.90
2006,05,03,01,18,5.90
2006,05,03,01,19,5.90
2006,05,03,01,20,5.90
2006,05,03,01,21,5.80
2006,05,03,01,22,5.80
2006,05,03,01,23,5.80
2006,05,03,01,24,5.80
2006,05,03,01,25,5.80
2006,05,03,01,26,5.80
2006,05,03,01,27,5.70
2006,05,03,01,28,5.70
2006,05,03,01,29,5.80
2006,05,03,01,30,5.80
2006,05,03,01,31,5.80
2006,05,03,01,32,5.80
2006,05,03,01,33,5.90
2006,05,03,01,34,5.80
2006,05,03,01,35,5.80
2006,05,03,01,36,5.80
2006,05,03,01,37,5.80
2006,05,03,01,38,5.80
2006,05,03,01,39,5.70
2006,05,03,01,40,5.70
2006,05,03,01,41,5.70
2006,05,03,01,42,5.70
2006,05,03,01,43,5.70
2006,05,03,01,44,5.70
2006,05,03,01,45,5.70
2006,05,03,01,46,5.60
2006,05,03,01,47,5.60
2006,05,03,01,48,5.70
2006,05,03,01,49,5.70
2006,05,03,01,50,5.70
2006,05,03,01,51,5.70
2006,05,03,01,52,5.60
2006,05,03,01,53,5.60
2006,05,03,01,54,5.60
2006,05,03,01,55,5.60
2006,05,03,01,56,5.60
2006,05,03,01,57,5.60
2006,05,03,01,58,5.60
2006,05,03,01,59,5.60
2006,05,03,02,00,5.60
2006,05,03,02,01,5.50
2006,05,03,02,02,5.50
2006,05,03,02,03,5.50
2006,05,03,02,04,5.50
2006,05,03,02,05,5.50
2006,05,03,02,06,5.50
2006,05,03,02,07,5.50
2006,05,03,02,08,5.50
2006,05,03,02,09,5.50
2006,05,03,02,10,5.50
2006,05,03,02,11,5.40
2006,05,03,02,12,5.40
2006,05,03,02,13,5.40
2006,05,03,02,14,5.40
2006,05,03,02,15,5.40
2006,05,03,02,16,5.40
2006,05,03,02,17,5.40
2006,05,03,02,18,5.40
2006,05,03,02,19,5.40
2006,05,03,02,20,5.30
2006,05,03,02,21,5.30
2006,05,03,02,22,5.30
2006,05,03,02,23,5.30
2006,05,03,02,24,5.30
2006,05,03,02,25,5.30
2006,05,03,02,26,5.20
2006,05,03,02,27,5.20
2006,05,03,02,28,5.20
2006,05,03,02,29,5.20
2006,05,03,02,30,5.20
2006,05,03,02,31,5.20
2006,05,03,02,32,5.20
2006,05,03,02,33,5.20
2006,05,03,02,34,5.20
2006,05,03,02,35,5.10
2006,05,03,02,36,5.10
2006,05,03,02,37,5.10
2006,05,03,02,38,5.10
2006,05,03,02,39,5.20
2006,05,03,02,40,5.20
2006,05,03,02,41,5.10
2006,05,03,02,42,5.10
2006,05,03,02,43,5.10
2006,05,03,02,44,5.10
2006,05,03,02,45,5.10
2006,05,03,02,46,5.10
2006,05,03,02,47,5.10
2006,05,03,02,48,5.10
2006,05,03,02,49,5.10
2006,05,03,02,50,5.10
2006,05,03,02,51,5.10
2006,05,03,02,52,5.10
2006,05,03,02,53,5.10
2006,05,03,02,54,5.10
2006,05,03,02,55,5.10
2006,05,03,02,56,5.10
2006,05,03,02,57,5.10
2006,05,03,02,58,5.10
2006,05,03,02,59,5.10
2006,05,03,03,00,5.10
2006,05,03,03,01,5.10
2006,05,03,03,02,5.10
2006,05,03,03,03,5.10
2006,05,03,03,04,5.10
2006,05,03,03,05,5.10
2006,05,03,03,06,5.10
2006,05,03,03,07,5.10
2006,05,03,03,08,5.10
2006,05,03,03,09,5.10
2006,05,03,03,10,5.10
2006,05,03,03,11,5.10
2006,05,03,03,12,5.10
2006,05,03,03,13,5.10
2006,05,03,03,14,5.10
2006,05,03,03,15,5.10
2006,05,03,03,16,5.10
2006,05,03,03,17,5.00
2006,05,03,03,18,4.90
2006,05,03,03,19,4.90
2006,05,03,03,20,4.90
2006,05,03,03,21,4.90
2006,05,03,03,22,4.90
2006,05,03,03,23,4.90
2006,05,03,03,24,4.90
2006,05,03,03,25,4.90
2006,05,03,03,26,4.90
2006,05,03,03,27,4.90
2006,05,03,03,28,4.90
2006,05,03,03,29,4.90
2006,05,03,03,30,4.90
2006,05,03,03,31,4.90
2006,05,03,03,32,4.90
2006,05,03,03,33,4.90
2006,05,03,03,34,4.90
2006,05,03,03,35,4.90
2006,05,03,03,36,4.90
2006,05,03,03,37,4.90
2006,05,03,03,38,4.80
2006,05,03,03,39,4.80
2006,05,03,03,40,4.80
2006,05,03,03,41,4.70
2006,05,03,03,42,4.70
2006,05,03,03,43,4.70
2006,05,03,03,44,4.70
2006,05,03,03,45,4.70
2006,05,03,03,46,4.70
2006,05,03,03,47,4.60
2006,05,03,03,48,4.60
2006,05,03,03,49,4.60
2006,05,03,03,50,4.60
2006,05,03,03,51,4.50
2006,05,03,03,52,4.50
2006,05,03,03,53,4.50
2006,05,03,03,54,4.60
2006,05,03,03,55,4.50
2006,05,03,03,56,4.40
2006,05,03,03,57,4.40
2006,05,03,03,58,4.40
2006,05,03,03,59,4.40
2006,05,03,04,00,4.40
2006,05,03,04,01,4.40
2006,05,03,04,02,4.40
2006,05,03,04,03,4.50
2006,05,03,04,04,4.50
2006,05,03,04,05,4.50
2006,05,03,04,06,4.50
2006,05,03,04,07,4.50
2006,05,03,04,08,4.50
2006,05,03,04,09,4.50
2006,05,03,04,10,4.50
2006,05,03,04,11,4.50
2006,05,03,04,12,4.50
2006,05,03,04,13,4.50
2006,05,03,04,14,4.50
2006,05,03,04,15,4.50
2006,05,03,04,16,4.60
2006,05,03,04,17,4.60
2006,05,03,04,18,4.60
2006,05,03,04,19,4.50
2006,05,03,04,20,4.50
2006,05,03,04,21,4.50
2006,05,03,04,22,4.40
2006,05,03,04,23,4.40
2006,05,03,04,24,4.50
2006,05,03,04,25,4.50
2006,05,03,04,26,4.40
2006,05,03,04,27,4.30
2006,05,03,04,28,4.30
2006,05,03,04,29,4.30
2006,05,03,04,30,4.20
2006,05,03,04,31,4.20
2006,05,03,04,32,4.20
2006,05,03,04,33,4.20
2006,05,03,04,34,4.20
2006,05,03,04,35,4.20
2006,05,03,04,36,4.20
2006,05,03,04,37,4.20
2006,05,03,04,38,4.20
2006,05,03,04,39,4.20
2006,05,03,04,40,4.20
2006,05,03,04,41,4.30
2006,05,03,04,42,4.30
2006,05,03,04,43,4.30
2006,05,03,04,44,4.30
2006,05,03,04,45,4.30
2006,05,03,04,46,4.30
2006,05,03,04,47,4.30
2006,05,03,04,48,4.30
2006,05,03,04,49,4.30
2006,05,03,04,50,4.30
2006,05,03,04,51,4.30
2006,05,03,04,52,4.30
2006,05,03,04,53,4.30
2006,05,03,04,54,4.40
2006,05,03,04,55,4.40
2006,05,03,04,56,4.40
2006,05,03,04,57,4.40
2006,05,03,04,58,4.40
2006,05,03,04,59,4.40
2006,05,03,05,00,4.40
2006,05,03,05,01,4.40
2006,05,03,05,02,4.40
2006,05,03,05,03,4.40
2006,05,03,05,04,4.40
2006,05,03,05,05,4.40
2006,05,03,05,06,4.40
2006,05,03,05,07,4.40
2006,05,03,05,08,4.40
2006,05,03,05,09,4.30
2006,05,03,05,10,4.30
2006,05,03,05,11,4.30
2006,05,03,05,12,4.20
2006,05,03,05,13,4.20
2006,05,03,05,14,4.20
2006,05,03,05,15,4.20
2006,05,03,05,16,4.20
2006,05,03,05,17,4.20
2006,05,03,05,18,4.20
2006,05,03,05,19,4.20
2006,05,03,05,20,4.20
2006,05,03,05,21,4.20
2006,05,03,05,22,4.20
2006,05,03,05,23,4.20
2006,05,03,05,24,4.20
2006,05,03,05,25,4.20
2006,05,03,05,26,4.30
2006,05,03,05,27,4.40
2006,05,03,05,28,4.40
2006,05,03,05,29,4.40
2006,05,03,05,30,4.40
2006,05,03,05,31,4.40
2006,05,03,05,32,4.40
2006,05,03,05,33,4.50
2006,05,03,05,34,4.50
2006,05,03,05,35,4.40
2006,05,03,05,36,4.40
2006,05,03,05,37,4.40
2006,05,03,05,38,4.40
2006,05,03,05,39,4.40
2006,05,03,05,40,4.30
2006,05,03,05,41,4.30
2006,05,03,05,42,4.20
2006,05,03,05,43,4.20
2006,05,03,05,44,4.20
2006,05,03,05,45,4.20
2006,05,03,05,46,4.20
2006,05,03,05,47,4.30
2006,05,03,05,48,4.40
2006,05,03,05,49,4.40
2006,05,03,05,50,4.40
2006,05,03,05,51,4.40
2006,05,03,05,52,4.40
2006,05,03,05,53,4.40
2006,05,03,05,54,4.40
2006,05,03,05,55,4.40
2006,05,03,05,56,4.40
2006,05,03,05,57,4.30
2006,05,03,05,58,4.30
2006,05,03,05,59,4.20
2006,05,03,06,00,4.20
2006,05,03,06,01,4.20
2006,05,03,06,02,4.20
2006,05,03,06,03,4.20
2006,05,03,06,04,4.20
2006,05,03,06,05,4.20
2006,05,03,06,06,4.30
2006,05,03,06,07,4.30
2006,05,03,06,08,4.30
2006,05,03,06,09,4.30
2006,05,03,06,10,4.20
2006,05,03,06,11,4.20
2006,05,03,06,12,4.20
2006,05,03,06,13,4.20
2006,05,03,06,14,4.20
2006,05,03,06,15,4.20
2006,05,03,06,16,4.20
2006,05,03,06,17,4.30
2006,05,03,06,18,4.30
2006,05,03,06,19,4.40
2006,05,03,06,20,4.30
2006,05,03,06,21,4.30
2006,05,03,06,22,4.20
2006,05,03,06,23,4.30
2006,05,03,06,24,4.40
2006,05,03,06,25,4.50
2006,05,03,06,26,4.60
2006,05,03,06,27,4.60
2006,05,03,06,28,4.60
2006,05,03,06,29,4.60
2006,05,03,06,30,4.60
2006,05,03,06,31,4.60
2006,05,03,06,32,4.60
2006,05,03,06,33,4.70
2006,05,03,06,34,4.70
2006,05,03,06,35,4.80
2006,05,03,06,36,4.90
2006,05,03,06,37,4.90
2006,05,03,06,38,5.10
2006,05,03,06,39,5.10
2006,05,03,06,40,5.10
2006,05,03,06,41,5.20
2006,05,03,06,42,5.20
2006,05,03,06,43,5.30
2006,05,03,06,44,5.30
2006,05,03,06,45,5.20
2006,05,03,06,46,5.20
2006,05,03,06,47,5.20
2006,05,03,06,48,5.20
2006,05,03,06,49,5.20
2006,05,03,06,50,5.30
2006,05,03,06,51,5.30
2006,05,03,06,52,5.30
2006,05,03,06,53,5.30
2006,05,03,06,54,5.30
2006,05,03,06,55,5.30
2006,05,03,06,56,5.40
2006,05,03,06,57,5.40
2006,05,03,06,58,5.50
2006,05,03,06,59,5.50
2006,05,03,07,00,5.60
2006,05,03,07,01,5.60
2006,05,03,07,02,5.70
2006,05,03,07,03,5.70
2006,05,03,07,04,5.70
2006,05,03,07,05,5.70
2006,05,03,07,06,5.70
2006,05,03,07,07,5.80
2006,05,03,07,08,5.80
2006,05,03,07,09,5.80
2006,05,03,07,10,5.90
2006,05,03,07,11,5.90
2006,05,03,07,12,5.90
2006,05,03,07,13,5.90
2006,05,03,07,14,6.00
2006,05,03,07,15,6.00
2006,05,03,07,16,6.00
2006,05,03,07,17,6.10
2006,05,03,07,18,6.10
2006,05,03,07,19,6.20
2006,05,03,07,20,6.20
2006,05,03,07,21,6.30
2006,05,03,07,22,6.30
2006,05,03,07,23,6.50
2006,05,03,07,24,6.60
2006,05,03,07,25,6.60
2006,05,03,07,26,6.70
2006,05,03,07,27,6.80
2006,05,03,07,28,6.90
2006,05,03,07,29,7.00
2006,05,03,07,30,7.00
2006,05,03,07,31,7.10
2006,05,03,07,32,7.20
2006,05,03,07,33,7.30
2006,05,03,07,34,7.30
2006,05,03,07,35,7.40
2006,05,03,07,36,7.50
2006,05,03,07,37,7.60
2006,05,03,07,38,7.60
2006,05,03,07,39,7.70
2006,05,03,07,40,7.80
2006,05,03,07,41,7.80
2006,05,03,07,42,7.90
2006,05,03,07,43,7.90
2006,05,03,07,44,8.00
2006,05,03,07,45,8.10
2006,05,03,07,46,8.20
2006,05,03,07,47,8.30
2006,05,03,07,48,8.40
2006,05,03,07,49,8.40
2006,05,03,07,50,8.50
2006,05,03,07,51,8.60
2006,05,03,07,52,8.70
2006,05,03,07,53,8.70
2006,05,03,07,54,8.70
2006,05,03,07,55,8.70
2006,05,03,07,56,8.80
2006,05,03,07,57,8.80
2006,05,03,07,58,8.90
2006,05,03,07,59,8.90
2006,05,03,08,00,9.00
2006,05,03,08,01,9.10
2006,05,03,08,02,9.20
2006,05,03,08,03,9.40
2006,05,03,08,04,9.50
2006,05,03,08,05,9.60
2006,05,03,08,06,9.70
2006,05,03,08,07,9.70
2006,05,03,08,08,9.80
2006,05,03,08,09,9.80
2006,05,03,08,10,9.90
2006,05,03,08,11,9.90
2006,05,03,08,12,9.90
2006,05,03,08,13,9.90
2006,05,03,08,14,9.90
2006,05,03,08,15,10.00
2006,05,03,08,16,10.10
2006,05,03,08,17,10.10
2006,05,03,08,18,10.20
2006,05,03,08,19,10.20
2006,05,03,08,20,10.30
2006,05,03,08,21,10.30
2006,05,03,08,22,10.40
2006,05,03,08,23,10.40
2006,05,03,08,24,10.50
2006,05,03,08,25,10.60
2006,05,03,08,26,10.60
2006,05,03,08,27,10.60
2006,05,03,08,28,10.60
2006,05,03,08,29,10.60
2006,05,03,08,30,10.60
2006,05,03,08,31,10.60
2006,05,03,08,32,10.70
2006,05,03,08,33,10.70
2006,05,03,08,34,10.90
2006,05,03,08,35,10.90
2006,05,03,08,36,11.00
2006,05,03,08,37,11.10
2006,05,03,08,38,11.20
2006,05,03,08,39,11.30
2006,05,03,08,40,11.30
2006,05,03,08,41,11.40
2006,05,03,08,42,11.50
2006,05,03,08,43,11.60
2006,05,03,08,44,11.60
2006,05,03,08,45,11.60
2006,05,03,08,46,11.70
2006,05,03,08,47,11.70
2006,05,03,08,48,11.60
2006,05,03,08,49,11.60
2006,05,03,08,50,11.60
2006,05,03,08,51,11.40
2006,05,03,08,52,11.30
2006,05,03,08,53,11.10
2006,05,03,08,54,11.00
2006,05,03,08,55,10.80
2006,05,03,08,56,10.60
2006,05,03,08,57,10.60
2006,05,03,08,58,10.50
2006,05,03,08,59,10.40
2006,05,03,09,00,10.40
2006,05,03,09,01,10.40
2006,05,03,09,02,10.50
2006,05,03,09,03,10.60
2006,05,03,09,04,10.60
2006,05,03,09,05,10.60
2006,05,03,09,06,10.60
2006,05,03,09,07,10.60
2006,05,03,09,08,10.60
2006,05,03,09,09,10.60
2006,05,03,09,10,10.60
2006,05,03,09,11,10.70
2006,05,03,09,12,10.80
2006,05,03,09,13,10.80
2006,05,03,09,14,10.80
2006,05,03,09,15,10.70
2006,05,03,09,16,10.40
2006,05,03,09,17,10.10
2006,05,03,09,18,10.00
2006,05,03,09,19,9.90
2006,05,03,09,20,9.90
2006,05,03,09,21,9.80
2006,05,03,09,22,9.80
2006,05,03,09,23,9.80
2006,05,03,09,24,9.80
2006,05,03,09,25,9.90
2006,05,03,09,26,9.80
2006,05,03,09,27,9.80
2006,05,03,09,28,9.90
2006,05,03,09,29,9.90
2006,05,03,09,30,9.80
2006,05,03,09,31,9.90
2006,05,03,09,32,9.90
2006,05,03,09,33,9.90
2006,05,03,09,34,9.90
2006,05,03,09,35,9.90
2006,05,03,09,36,9.90
2006,05,03,09,37,10.00
2006,05,03,09,38,10.10
2006,05,03,09,39,10.10
2006,05,03,09,40,10.10
2006,05,03,09,41,10.10
2006,05,03,09,42,10.10
2006,05,03,09,43,10.00
2006,05,03,09,44,9.90
2006,05,03,09,45,9.90
2006,05,03,09,46,9.90
2006,05,03,09,47,9.90
2006,05,03,09,48,9.90
2006,05,03,09,49,9.90
2006,05,03,09,50,9.90
2006,05,03,09,51,9.90
2006,05,03,09,52,9.90
2006,05,03,09,53,10.00
2006,05,03,09,54,10.10
2006,05,03,09,55,10.10
2006,05,03,09,56,10.10
2006,05,03,09,57,10.10
2006,05,03,09,58,9.90
2006,05,03,09,59,9.90
2006,05,03,10,00,10.00
2006,05,03,10,01,10.10
2006,05,03,10,02,10.10
2006,05,03,10,03,10.20
2006,05,03,10,04,10.20
2006,05,03,10,05,10.20
2006,05,03,10,06,10.20
2006,05,03,10,07,10.20
2006,05,03,10,08,10.30
2006,05,03,10,09,10.30
2006,05,03,10,10,10.30
2006,05,03,10,11,10.30
2006,05,03,10,12,10.30
2006,05,03,10,13,10.40
2006,05,03,10,14,10.30
2006,05,03,10,15,10.20
2006,05,03,10,16,10.20
2006,05,03,10,17,10.20
2006,05,03,10,18,10.20
2006,05,03,10,19,10.20
2006,05,03,10,20,10.20
2006,05,03,10,21,10.10
2006,05,03,10,22,10.10
2006,05,03,10,23,10.20
2006,05,03,10,24,10.30
2006,05,03,10,25,10.30
2006,05,03,10,26,10.40
2006,05,03,10,27,10.60
2006,05,03,10,28,10.60
2006,05,03,10,29,10.60
2006,05,03,10,30,10.60
2006,05,03,10,31,10.60
2006,05,03,10,32,10.60
2006,05,03,10,33,10.60
2006,05,03,10,34,10.60
2006,05,03,10,35,10.60
2006,05,03,10,36,10.70
2006,05,03,10,37,10.90
2006,05,03,10,38,11.10
2006,05,03,10,39,11.20
2006,05,03,10,40,11.20
2006,05,03,10,41,11.20
2006,05,03,10,42,11.10
2006,05,03,10,43,11.20
2006,05,03,10,44,11.20
2006,05,03,10,45,11.20
2006,05,03,10,46,11.30
2006,05,03,10,47,11.40
2006,05,03,10,48,11.30
2006,05,03,10,49,11.40
2006,05,03,10,50,11.40
2006,05,03,10,51,11.40
2006,05,03,10,52,11.60
2006,05,03,10,53,11.60
2006,05,03,10,54,11.60
2006,05,03,10,55,11.70
2006,05,03,10,56,11.80
2006,05,03,10,57,11.70
2006,05,03,10,58,11.80
2006,05,03,10,59,11.80
2006,05,03,11,00,11.70
2006,05,03,11,01,11.70
2006,05,03,11,02,11.60
2006,05,03,11,03,11.60
2006,05,03,11,04,11.60
2006,05,03,11,05,11.50
2006,05,03,11,06,11.40
2006,05,03,11,07,11.40
2006,05,03,11,08,11.30
2006,05,03,11,09,11.20
2006,05,03,11,10,11.20
2006,05,03,11,11,11.20
2006,05,03,11,12,11.30
2006,05,03,11,13,11.30
2006,05,03,11,14,11.30
2006,05,03,11,15,11.40
2006,05,03,11,16,11.40
2006,05,03,11,17,11.40
2006,05,03,11,18,11.50
2006,05,03,11,19,11.60
2006,05,03,11,20,11.60
2006,05,03,11,21,11.60
2006,05,03,11,22,11.60
2006,05,03,11,23,11.60
2006,05,03,11,24,11.50
2006,05,03,11,25,11.60
2006,05,03,11,26,11.60
2006,05,03,11,27,11.60
2006,05,03,11,28,11.70
2006,05,03,11,29,11.80
2006,05,03,11,30,11.80
2006,05,03,11,31,11.80
2006,05,03,11,32,11.90
2006,05,03,11,33,12.00
2006,05,03,11,34,11.90
2006,05,03,11,35,11.90
2006,05,03,11,36,12.00
2006,05,03,11,37,12.10
2006,05,03,11,38,12.10
2006,05,03,11,39,11.90
2006,05,03,11,40,11.90
2006,05,03,11,41,11.90
2006,05,03,11,42,11.90
2006,05,03,11,43,11.80
2006,05,03,11,44,11.80
2006,05,03,11,45,11.80
2006,05,03,11,46,11.80
2006,05,03,11,47,11.90
2006,05,03,11,48,12.00
2006,05,03,11,49,12.10
2006,05,03,11,50,12.20
2006,05,03,11,51,12.30
2006,05,03,11,52,12.30
2006,05,03,11,53,12.40
2006,05,03,11,54,12.30
2006,05,03,11,55,12.00
2006,05,03,11,56,11.80
2006,05,03,11,57,11.80
2006,05,03,11,58,11.80
2006,05,03,11,59,11.80
2006,05,03,12,00,11.80
2006,05,03,12,01,11.80
2006,05,03,12,02,11.90
2006,05,03,12,03,12.00
2006,05,03,12,04,12.00
2006,05,03,12,05,12.10
2006,05,03,12,06,12.10
2006,05,03,12,07,12.20
2006,05,03,12,08,12.30
2006,05,03,12,09,12.40
2006,05,03,12,10,12.50
2006,05,03,12,11,12.50
2006,05,03,12,12,12.50
2006,05,03,12,13,12.50
2006,05,03,12,14,12.50
2006,05,03,12,15,12.50
2006,05,03,12,16,12.60
2006,05,03,12,17,12.70
2006,05,03,12,18,12.80
2006,05,03,12,19,13.00
2006,05,03,12,20,13.00
2006,05,03,12,21,13.10
2006,05,03,12,22,13.20
2006,05,03,12,23,13.30
2006,05,03,12,24,13.20
2006,05,03,12,25,12.90
2006,05,03,12,26,12.70
2006,05,03,12,27,12.60
2006,05,03,12,28,12.40
2006,05,03,12,29,12.30
2006,05,03,12,30,12.30
2006,05,03,12,31,12.30
2006,05,03,12,32,12.30
2006,05,03,12,33,12.50
2006,05,03,12,34,12.60
2006,05,03,12,35,12.80
2006,05,03,12,36,12.80
2006,05,03,12,37,12.80
2006,05,03,12,38,12.80
2006,05,03,12,39,12.80
2006,05,03,12,40,12.80
2006,05,03,12,41,12.80
2006,05,03,12,42,12.90
2006,05,03,12,43,13.00
2006,05,03,12,44,13.00
2006,05,03,12,45,13.00
2006,05,03,12,46,12.90
2006,05,03,12,47,12.80
2006,05,03,12,48,12.80
2006,05,03,12,49,12.70
2006,05,03,12,50,12.60
2006,05,03,12,51,12.60
2006,05,03,12,52,12.50
2006,05,03,12,53,12.50
2006,05,03,12,54,12.50
2006,05,03,12,55,12.50
2006,05,03,12,56,12.50
2006,05,03,12,57,12.40
2006,05,03,12,58,12.30
2006,05,03,12,59,12.10
2006,05,03,13,00,11.90
2006,05,03,13,01,11.80
2006,05,03,13,02,11.80
2006,05,03,13,03,11.80
2006,05,03,13,04,11.80
2006,05,03,13,05,11.80
2006,05,03,13,06,12.00
2006,05,03,13,07,12.00
2006,05,03,13,08,12.00
2006,05,03,13,09,12.00
2006,05,03,13,10,12.10
2006,05,03,13,11,12.20
2006,05,03,13,12,12.50
2006,05,03,13,13,12.60
2006,05,03,13,14,12.40
2006,05,03,13,15,12.30
2006,05,03,13,16,12.30
2006,05,03,13,17,12.30
2006,05,03,13,18,12.30
2006,05,03,13,19,12.40
2006,05,03,13,20,12.40
2006,05,03,13,21,12.40
2006,05,03,13,22,12.60
2006,05,03,13,23,12.70
2006,05,03,13,24,12.80
2006,05,03,13,25,12.80
2006,05,03,13,26,12.70
2006,05,03,13,27,12.70
2006,05,03,13,28,12.70
2006,05,03,13,29,12.80
2006,05,03,13,30,12.80
2006,05,03,13,31,12.80
2006,05,03,13,32,12.80
2006,05,03,13,33,12.90
2006,05,03,13,34,12.90
2006,05,03,13,35,12.80
2006,05,03,13,36,12.80
2006,05,03,13,37,12.80
2006,05,03,13,38,12.80
2006,05,03,13,39,12.80
2006,05,03,13,40,12.80
2006,05,03,13,41,12.80
2006,05,03,13,42,12.70
2006,05,03,13,43,12.70
2006,05,03,13,44,12.90
2006,05,03,13,45,12.90
2006,05,03,13,46,12.90
2006,05,03,13,47,12.80
2006,05,03,13,48,12.60
2006,05,03,13,49,12.50
2006,05,03,13,50,12.40
2006,05,03,13,51,12.30
2006,05,03,13,52,12.30
2006,05,03,13,53,12.30
2006,05,03,13,54,12.40
2006,05,03,13,55,12.60
2006,05,03,13,56,12.70
2006,05,03,13,57,12.70
2006,05,03,13,58,12.70
2006,05,03,13,59,12.60
2006,05,03,14,00,12.50
2006,05,03,14,01,12.40
2006,05,03,14,02,12.30
2006,05,03,14,03,12.30
2006,05,03,14,04,12.20
2006,05,03,14,05,12.10
2006,05,03,14,06,12.00
2006,05,03,14,07,12.00
2006,05,03,14,08,12.00
2006,05,03,14,09,12.00
2006,05,03,14,10,12.10
2006,05,03,14,11,12.20
2006,05,03,14,12,12.20
2006,05,03,14,13,12.40
2006,05,03,14,14,12.50
2006,05,03,14,15,12.50
2006,05,03,14,16,12.60
2006,05,03,14,17,12.60
2006,05,03,14,18,12.60
2006,05,03,14,19,12.60
2006,05,03,14,20,12.50
2006,05,03,14,21,12.50
2006,05,03,14,22,12.40
2006,05,03,14,23,12.20
2006,05,03,14,24,12.10
2006,05,03,14,25,12.10
2006,05,03,14,26,12.20
2006,05,03,14,27,12.20
2006,05,03,14,28,12.20
2006,05,03,14,29,12.20
2006,05,03,14,30,12.30
2006,05,03,14,31,12.40
2006,05,03,14,32,12.50
2006,05,03,14,33,12.60
2006,05,03,14,34,12.60
2006,05,03,14,35,12.70
2006,05,03,14,36,12.60
2006,05,03,14,37,12.60
2006,05,03,14,38,12.50
2006,05,03,14,39,12.50
2006,05,03,14,40,12.50
2006,05,03,14,41,12.60
2006,05,03,14,42,12.60
2006,05,03,14,43,12.50
2006,05,03,14,44,12.40
2006,05,03,14,45,12.40
2006,05,03,14,46,12.50
2006,05,03,14,47,12.50
2006,05,03,14,48,12.40
2006,05,03,14,49,12.40
2006,05,03,14,50,12.50
2006,05,03,14,51,12.40
2006,05,03,14,52,12.30
2006,05,03,14,53,12.30
2006,05,03,14,54,12.40
2006,05,03,14,55,12.50
2006,05,03,14,56,12.60
2006,05,03,14,57,12.60
2006,05,03,14,58,12.60
2006,05,03,14,59,12.60
2006,05,03,15,00,12.50
2006,05,03,15,01,12.50
2006,05,03,15,02,12.40
2006,05,03,15,03,12.40
2006,05,03,15,04,12.40
2006,05,03,15,05,12.50
2006,05,03,15,06,12.60
2006,05,03,15,07,12.80
2006,05,03,15,08,12.90
2006,05,03,15,09,12.90
2006,05,03,15,10,12.90
2006,05,03,15,11,12.80
2006,05,03,15,12,12.90
2006,05,03,15,13,12.80
2006,05,03,15,14,12.90
2006,05,03,15,15,12.80
2006,05,03,15,16,12.60
2006,05,03,15,17,12.60
2006,05,03,15,18,12.70
2006,05,03,15,19,12.80
2006,05,03,15,20,12.80
2006,05,03,15,21,12.80
2006,05,03,15,22,12.80
2006,05,03,15,23,12.80
2006,05,03,15,24,12.80
2006,05,03,15,25,12.80
2006,05,03,15,26,12.80
2006,05,03,15,27,12.80
2006,05,03,15,28,12.70
2006,05,03,15,29,12.70
2006,05,03,15,30,12.70
2006,05,03,15,31,12.80
2006,05,03,15,32,12.90
2006,05,03,15,33,13.00
2006,05,03,15,34,13.00
2006,05,03,15,35,13.00
2006,05,03,15,36,13.00
2006,05,03,15,37,13.10
2006,05,03,15,38,13.10
2006,05,03,15,39,13.10
2006,05,03,15,40,13.10
2006,05,03,15,41,13.00
2006,05,03,15,42,13.10
2006,05,03,15,43,13.10
2006,05,03,15,44,13.10
2006,05,03,15,45,13.10
2006,05,03,15,46,13.00
2006,05,03,15,47,13.00
2006,05,03,15,48,12.90
2006,05,03,15,49,12.90
2006,05,03,15,50,12.80
2006,05,03,15,51,12.80
2006,05,03,15,52,12.80
2006,05,03,15,53,12.80
2006,05,03,15,54,12.80
2006,05,03,15,55,12.80
2006,05,03,15,56,12.80
2006,05,03,15,57,12.90
2006,05,03,15,58,13.00
2006,05,03,15,59,13.10
2006,05,03,16,00,13.20
2006,05,03,16,01,13.10
2006,05,03,16,02,13.00
2006,05,03,16,03,13.00
2006,05,03,16,04,13.00
2006,05,03,16,05,13.10
2006,05,03,16,06,13.10
2006,05,03,16,07,13.10
2006,05,03,16,08,13.10
2006,05,03,16,09,13.10
2006,05,03,16,10,13.30
2006,05,03,16,11,13.40
2006,05,03,16,12,13.50
2006,05,03,16,13,13.50
2006,05,03,16,14,13.60
2006,05,03,16,15,13.70
2006,05,03,16,16,13.70
2006,05,03,16,17,13.60
2006,05,03,16,18,13.60
2006,05,03,16,19,13.60
2006,05,03,16,20,13.50
2006,05,03,16,21,13.40
2006,05,03,16,22,13.40
2006,05,03,16,23,13.40
2006,05,03,16,24,13.40
2006,05,03,16,25,13.40
2006,05,03,16,26,13.30
2006,05,03,16,27,13.20
2006,05,03,16,28,13.20
2006,05,03,16,29,13.30
2006,05,03,16,30,13.30
2006,05,03,16,31,13.30
2006,05,03,16,32,13.20
2006,05,03,16,33,13.20
2006,05,03,16,34,13.10
2006,05,03,16,35,13.10
2006,05,03,16,36,13.10
2006,05,03,16,37,13.10
2006,05,03,16,38,13.10
2006,05,03,16,39,13.10
2006,05,03,16,40,13.20
2006,05,03,16,41,13.20
2006,05,03,16,42,13.20
2006,05,03,16,43,13.30
2006,05,03,16,44,13.50
2006,05,03,16,45,13.60
2006,05,03,16,46,13.70
2006,05,03,16,47,13.60
2006,05,03,16,48,13.70
2006,05,03,16,49,13.60
2006,05,03,16,50,13.60
2006,05,03,16,51,13.60
2006,05,03,16,52,13.70
2006,05,03,16,53,13.70
2006,05,03,16,54,13.70
2006,05,03,16,55,13.80
2006,05,03,16,56,14.00
2006,05,03,16,57,14.10
2006,05,03,16,58,14.20
2006,05,03,16,59,14.30
2006,05,03,17,00,14.50
2006,05,03,17,01,14.60
2006,05,03,17,02,14.60
2006,05,03,17,03,14.60
2006,05,03,17,04,14.50
2006,05,03,17,05,14.60
2006,05,03,17,06,14.70
2006,05,03,17,07,14.80
2006,05,03,17,08,14.90
2006,05,03,17,09,14.90
2006,05,03,17,10,14.90
2006,05,03,17,11,14.80
2006,05,03,17,12,14.80
2006,05,03,17,13,14.80
2006,05,03,17,14,14.90
2006,05,03,17,15,15.10
2006,05,03,17,16,15.00
2006,05,03,17,17,14.80
2006,05,03,17,18,14.60
2006,05,03,17,19,14.60
2006,05,03,17,20,14.60
2006,05,03,17,21,14.60
2006,05,03,17,22,14.60
2006,05,03,17,23,14.50
2006,05,03,17,24,14.50
2006,05,03,17,25,14.40
2006,05,03,17,26,14.30
2006,05,03,17,27,14.30
2006,05,03,17,28,14.30
2006,05,03,17,29,14.30
2006,05,03,17,30,14.40
2006,05,03,17,31,14.40
2006,05,03,17,32,14.30
2006,05,03,17,33,14.20
2006,05,03,17,34,14.30
2006,05,03,17,35,14.30
2006,05,03,17,36,14.20
2006,05,03,17,37,14.20
2006,05,03,17,38,14.20
2006,05,03,17,39,14.20
2006,05,03,17,40,14.20
2006,05,03,17,41,14.20
2006,05,03,17,42,14.20